Tracking 19706 objects as of 15-Jun-2019
HD Live streaming from Space Station
objects crossing your sky now

SCOUT A-1 R/B

Track SCOUT A-1 R/B now!
10-day predictions


NORAD ID: 6910
Int'l Code: 1973-081B
Perigee: 891.6 km
Apogee: 1,128.1 km
Inclination: 89.8 °
Period: 105.2 minutes
Semi major axis: 7380 km
RCS: 0.6465 m2 (medium)
Launch date: October 30, 1973
Source: United States (US)
Launch site: AIR FORCE WESTERN TEST RANGE (AFWTR)

Note: This is a ROCKET BODY
aabbcc
Your satellite tracking list
Your tracking list is empty




NASA's NSSDC Master Catalog

Two Line Element Set (TLE):
1  6910U 73081B   19165.91578882 -.00000015 +00000-0 -27135-4 0  9995
2  6910 089.8123 296.1657 0160171 038.4212 322.8227 13.69131153276588
Source of the keplerian elements: AFSPC